Regional Weather Roundup
Issued by NWS

Home | Current Version | Previous Version | Graphics & Text | Print | Product List | Glossary On
Versions: 1 2 3 4 5 6 7 8 9 10 11 12 13 14 15 16 17 18 19 20 21 22 23 24 25 26 27 28 29 30 31 32 33 34 35 36 37 38 39 40 41 42 43 44 45 46 47 48 49 50
506
ASUS43 KDTX 201510
RWRMI
MICHIGAN HOURLY REGIONAL WEATHER ROUNDUP
NATIONAL WEATHER SERVICE DETROIT/PONTIAC MI
1100 AM EDT FRI APR 20 2018

NOTE: "FAIR" INDICATES FEW OR NO CLOUDS BELOW 12,000 FEET WITH NO
SIGNIFICANT WEATHER AND/OR OBSTRUCTION TO VISIBILITY.

MIZ047>049-052>055-059>063-066>070-074>076-081>083-201600-
SOUTHEAST LOWER MICHIGAN

CITY           SKY/WX    TMP DP  RH WIND       PRES   REMARKS
ADRIAN         FAIR      46  22  38 NW5       30.49R
ALMA           FAIR      46  21  37 NW5       30.50R
ANN ARBOR      FAIR      47  20  34 NW6       30.47R
BAD AXE        FAIR      43  25  49 N6        30.48S
CARO           FAIR      44  26  49 N6        30.48R
DETROIT CITY   FAIR      46  18  32 CALM      30.47S
DETROIT        FAIR      46  21  37 VRB3      30.47S
FLINT          FAIR      44  24  45 VRB6      30.48S
GROSSE ILE     FAIR      45  25  45 S5        30.47S
HILLSDALE      FAIR      46  19  34 CALM      30.47R
HOWELL         FAIR      45  24  44 W6        30.47S

CITY           SKY/WX    TMP DP  RH WIND       PRES   REMARKS
JACKSON        FAIR      46  19  34 NW7       30.48R
LAMBERTVILLE   FAIR      47  24  39 W6        30.48R
LANSING        FAIR      46  22  38 W3        30.49S
LAPEER         FAIR      44  20  39 N3        30.47S
MASON          FAIR      46  16  30 CALM      30.48S
MONROE         FAIR      44  23  42 N5        30.47S
MT. CLEMENS    SUNNY     45  24  44 VRB7      30.45S
PONTIAC        FAIR      45  22  40 NW7       30.45S
PORT HOPE        N/A     39  31  72 N6        30.47R WCI  35
PORT HURON     FAIR      45  19  36 N5        30.47S
TRI CITIES     FAIR      43  24  47 N5        30.49S
MIDLAND        FAIR      46  22  39 NW6       30.48S
TROY           FAIR      47  18  31 CALM      30.48S
SAGINAW HB     FAIR      43  27  52 N3        30.48S
$$
MIZ043>046-050>051-056>058-064>065-071>073-077>080-201600-
SOUTHWEST LOWER MICHIGAN

CITY           SKY/WX    TMP DP  RH WIND       PRES   REMARKS
BATTLE CREEK   FAIR      48  20  32 W3        30.49S
BENTON HARBOR  FAIR      49  24  37 E3        30.51S
BIG RAPIDS     FAIR      46  13  25 N8        30.48S
COLDWATER      FAIR      46  22  37 N3        30.49R
FREMONT        FAIR      47  10  22 N5        30.50R
HOLLAND        FAIR      50  19  29 N5        30.51R
GRAND RAPIDS   FAIR      49  22  34 S5        30.49S
IONIA          FAIR      46  20  34 CALM      30.49S
KALAMAZOO      FAIR      48  17  29 CALM      30.50R
LUDINGTON      FAIR      46  24  41 W5        30.50R
MARSHALL       FAIR      46  17  30 CALM      30.48S
MOUNT PLEASANT FAIR      46  19  33 NW3       30.48R
MUSKEGON       FAIR      50  18  28 VRB3      30.51R
SOUTH HAVEN    FAIR      48  30  48 NW3       30.51S
$$
MIZ016>042-201600-
NORTHERN LOWER MICHIGAN

CITY           SKY/WX    TMP DP  RH WIND       PRES   REMARKS
ALPENA         FAIR      40  23  50 N7        30.48S
BEAVER ISLAND  FAIR      40  25  53 W7        30.49R
BELLAIRE       FAIR      40  20  43 S6        30.50R
CADILLAC       FAIR      45  15  29 NW7       30.45S
CHARLEVOIX     FAIR      39  26  60 CALM      30.52R
FRANKFORT      FAIR      46  20  34 W3        30.50R
GAYLORD        FAIR      42  15  33 NE3       30.45S
GRAYLING       FAIR      39  20  46 CALM      30.45S
HARBOR SPRINGS FAIR      40  21  45 CALM      30.48S
HOUGHTON LAKE  FAIR      40  22  48 W7        30.47R
MANISTEE       FAIR      46  27  47 W5        30.50R
OSCODA         FAIR      41  18  39 N9        30.47S
PELLSTON       FAIR      41  19  41 SE3       30.48S
ROGERS CITY    FAIR      37  24  58 N5        30.50S WCI  33
TRAVERSE CITY  FAIR      45  18  34 CALM      30.48S
$$
MIZ007>008-015-201600-
EASTERN UPPER MICHIGAN

CITY           SKY/WX    TMP DP  RH WIND       PRES   REMARKS
KINROSS        FAIR      41  17  38 NE3       30.47S
MACKINAC ISLAN FAIR      42  16  34 CALM      30.47S
NEWBERRY       FAIR      43  18  36 CALM      30.46S
S. S. MARIE    FAIR      46  19  34 CALM      30.46S
MUNISING         N/A     40  26  57 CALM      30.46R
$$
MIZ004>006-011>014-085-201600-
CENTRAL UPPER MICHIGAN

CITY           SKY/WX    TMP DP  RH WIND       PRES   REMARKS
MANISTIQUE     FAIR      40  18  40 S6        30.48R
ESCANABA       FAIR      48  11  22 SE6       30.48S
MENOMINEE      FAIR      48  15  26 SE3       30.49S
SAWYER-GWINN   SUNNY     46   9  21 CALM      30.45S
$$
MIZ001>003-009>011-084-201600-
WESTERN UPPER MICHIGAN

CITY           SKY/WX    TMP DP  RH WIND       PRES   REMARKS
IRON MOUNTAIN  FAIR      51  15  23 CALM      30.44S
HOUGHTON       FAIR      47  16  29 W5        30.43S
COPPER HARBOR    N/A     40  27  59 CALM      30.44S
IRONWOOD       FAIR      47  18  31 W5        30.46R
$$

ABBREVIATIONS USED IN REMARKS
   TC - TEMPERATURE IN CELSIUS
  WCI - WIND CHILL INDEX
   HX - HEAT INDEX
  VSB - VISIBILITY





USA.gov is the U.S. government's official web portal to all federal, state and local government web resources and services.